GW4552 Weather Reports


time (UTC)temp
C
wind
direction
speed
KPH
gust
KPH
rain 1hr
cm
rain 24hr
cm
rain mn
cm
humidity
%
barometer
mb
20260508023501 6 97 0.0 1.6 0.00 0.00 0.00 68 1014.4
20260508023000 6 260 0.0 1.6 0.00 0.00 0.00 67 1014.3
20260508022501 6 135 0.0 1.6 0.00 0.00 0.00 65 1014.4
20260508022000 7 279 0.0 1.6 0.00 0.00 0.00 64 1014.3
20260508021501 7 135 0.0 1.6 0.00 0.00 0.00 63 1014.2
20260508021000 7 48 1.6 3.2 0.00 0.00 0.00 62 1014.2
20260508020506 7 39 1.6 3.2 0.00 0.00 0.00 61 1014.2
20260508020001 8 28 1.6 3.2 0.00 0.00 0.00 61 1014.3
20260508015500 8 19 3.2 3.2 0.00 0.00 0.00 60 1014.2
20260508015001 8 5 3.2 3.2 0.00 0.00 0.00 59 1014.2
20260508014501 8 50 1.6 3.2 0.00 0.00 0.00 59 1014.1
20260508014001 8 40 3.2 3.2 0.00 0.00 0.00 58 1014.1
20260508013500 9 3 3.2 4.8 0.00 0.00 0.00 57 1013.8
20260508013000 9 7 4.8 4.8 0.00 0.00 0.00 57 1013.9
20260508012501 9 355 3.2 6.4 0.00 0.00 0.00 57 1013.8
20260508012000 10 61 1.6 8.0 0.00 0.00 0.00 56 1013.6
20260508011506 10 350 0.0 4.8 0.00 0.00 0.00 57 1013.9
20260508011005 10 41 0.0 6.4 0.00 0.00 0.00 56 1013.5
20260508010501 10 19 3.2 4.8 0.00 0.00 0.00 56 1013.7
20260508010005 10 59 3.2 6.4 0.00 0.00 0.00 56 1013.6
20260508005501 10 237 1.6 6.4 0.00 0.00 0.00 55 1013.4
20260508005005 10 307 1.6 8.0 0.00 0.00 0.00 54 1013.3
20260508004501 10 327 4.8 4.8 0.00 0.00 0.00 54 1013.4
20260508004001 10 7 6.4 6.4 0.00 0.00 0.00 53 1013.2
20260508003501 10 251 3.2 8.0 0.00 0.00 0.00 52 1013.1
20260508003000 10 102 1.6 6.4 0.00 0.00 0.00 51 1012.9
20260508002501 11 300 3.2 4.8 0.00 0.00 0.00 50 1013.0
20260508002000 11 73 3.2 4.8 0.00 0.00 0.00 49 1012.9
20260508001501 11 334 6.4 11.3 0.00 0.00 0.00 47 1012.7
20260508001000 11 18 6.4 9.7 0.00 0.00 0.00 46 1012.6
20260508000501 11 137 1.6 9.7 0.00 0.00 0.00 46 1012.6
20260508000001 12 170 3.2 8.0 0.00 0.00 0.00 45 1012.6
20260507235500 12 3 8.0 11.3 0.00 0.00 0.00 44 1012.6
20260507235001 12 58 6.4 8.0 0.00 0.00 0.00 42 1012.5
20260507234500 12 269 9.7 12.9 0.00 0.00 0.00 41 1012.5
20260507234001 13 245 6.4 8.0 0.00 0.00 0.00 41 1012.4
20260507233511 12 246 3.2 6.4 0.00 0.00 0.00 42 1012.3
20260507233002 12 96 3.2 6.4 0.00 0.00 0.00 41 1012.3
20260507232501 12 10 6.4 14.5 0.00 0.00 0.00 41 1012.3
20260507232001 12 180 1.6 12.9 0.00 0.00 0.00 41 1012.2
20260507231501 12 259 12.9 27.4 0.00 0.00 0.00 40 1012.3
20260507231006 12 308 3.2 12.9 0.00 0.00 0.00 40 1012.2
20260507230501 13 278 6.4 12.9 0.00 0.00 0.00 39 1012.1
20260507230000 13 251 11.3 11.3 0.00 0.00 0.00 39 1012.0
20260507225501 13 256 3.2 12.9 0.00 0.00 0.00 40 1012.1
20260507225000 13 201 3.2 11.3 0.00 0.00 0.00 40 1011.9
20260507224506 13 12 1.6 22.5 0.00 0.00 0.00 39 1011.9
20260507224001 13 225 9.7 16.1 0.00 0.00 0.00 39 1011.9
20260507223502 14 270 9.7 19.3 0.00 0.00 0.00 38 1011.8
20260507223002 13 349 3.2 6.4 0.00 0.00 0.00 39 1011.6
20260507222501 15 89 0.0 3.2 0.00 0.00 0.00 39 1011.7
20260507222001 15 293 4.8 17.7 0.00 0.00 0.00 37 1011.7
20260507221500 15 185 3.2 11.3 0.00 0.00 0.00 37 1011.8
20260507221006 13 211 4.8 16.1 0.00 0.00 0.00 39 1011.4
20260507220510 14 245 6.4 14.5 0.00 0.00 0.00 38 1011.6
20260507220000 15 55 1.6 6.4 0.00 0.00 0.00 37 1011.5
20260507215506 14 290 1.6 8.0 0.00 0.00 0.00 38 1011.3
20260507215006 13 230 6.4 17.7 0.00 0.00 0.00 39 1011.4
20260507214500 15 353 6.4 9.7 0.00 0.00 0.00 36 1011.1
20260507214001 16 22 6.4 9.7 0.00 0.00 0.00 36 1011.3
20260507213500 15 184 3.2 9.7 0.00 0.00 0.00 37 1011.0
20260507213001 13 218 9.7 9.7 0.00 0.00 0.00 38 1011.5
20260507212500 13 244 8.0 16.1 0.00 0.00 0.00 39 1011.5
20260507212000 15 287 8.0 17.7 0.00 0.00 0.00 40 1011.4
20260507211501 15 267 4.8 12.9 0.00 0.00 0.00 37 1011.3
20260507211001 15 274 9.7 14.5 0.00 0.00 0.00 38 1011.0
20260507210501 16 259 9.7 12.9 0.00 0.00 0.00 38 1011.2
20260507210001 15 17 9.7 9.7 0.00 0.00 0.00 39 1011.0
20260507205505 15 248 12.9 19.3 0.00 0.00 0.00 40 1011.0
20260507205001 16 271 6.4 11.3 0.00 0.00 0.00 38 1011.1
20260507204501 16 358 9.7 14.5 0.00 0.00 0.00 37 1011.1
20260507204000 15 241 8.0 9.7 0.00 0.00 0.00 41 1011.0
20260507203506 14 357 4.8 9.7 0.00 0.00 0.00 39 1011.3
20260507203000 14 269 4.8 12.9 0.00 0.00 0.00 39 1011.2
20260507202501 15 259 1.6 8.0 0.00 0.00 0.00 39 1011.1
20260507202001 15 301 3.2 19.3 0.00 0.00 0.00 40 1011.1
20260507201500 15 330 8.0 11.3 0.00 0.00 0.00 37 1011.1
20260507201000 15 122 0.0 27.4 0.00 0.00 0.00 37 1011.2
20260507200506 15 232 6.4 14.5 0.00 0.00 0.00 37 1011.5
20260507200005 15 311 3.2 6.4 0.00 0.00 0.00 39 1011.2
20260507195506 14 289 4.8 12.9 0.00 0.00 0.00 40 1011.5
20260507195006 15 252 3.2 9.7 0.00 0.00 0.00 38 1011.2
20260507194500 16 297 4.8 17.7 0.00 0.00 0.00 37 1011.2
20260507194001 15 350 3.2 9.7 0.00 0.00 0.00 38 1011.5
20260507193501 16 237 22.5 24.1 0.00 0.00 0.00 36 1011.5
20260507193005 16 28 3.2 16.1 0.00 0.00 0.00 40 1011.3
20260507192501 14 281 1.6 9.7 0.00 0.00 0.00 41 1011.5
20260507192000 15 218 4.8 14.5 0.00 0.00 0.00 38 1011.5
20260507191501 16 268 9.7 14.5 0.00 0.00 0.00 39 1011.6
20260507191001 15 220 6.4 6.4 0.00 0.00 0.00 39 1011.5
20260507190501 13 34 3.2 6.4 0.00 0.00 0.00 43 1011.5
20260507190001 14 345 4.8 16.1 0.00 0.00 0.00 43 1011.6
20260507185502 14 12 4.8 8.0 0.00 0.00 0.00 42 1011.9
20260507185001 14 15 9.7 14.5 0.00 0.00 0.00 41 1011.6
20260507184501 14 42 0.0 19.3 0.00 0.00 0.00 43 1011.7
20260507184010 14 229 11.3 16.1 0.00 0.00 0.00 42 1011.6
20260507183501 13 321 4.8 11.3 0.00 0.00 0.00 42 1011.7
20260507183002 14 355 6.4 9.7 0.00 0.00 0.00 41 1011.7
20260507182501 14 249 4.8 14.5 0.00 0.00 0.00 45 1011.8
20260507182001 14 206 4.8 22.5 0.00 0.00 0.00 42 1011.9
20260507181506 15 220 8.0 20.9 0.00 0.00 0.00 49 1012.0
20260507181001 15 1 11.3 12.9 0.00 0.00 0.00 44 1011.9
20260507180501 13 252 6.4 8.0 0.00 0.00 0.00 45 1011.9
20260507180005 14 82 3.2 8.0 0.00 0.00 0.00 45 1012.1
20260507175506 13 157 0.0 9.7 0.00 0.00 0.00 46 1012.0
20260507175001 13 238 4.8 9.7 0.00 0.00 0.00 44 1012.0
20260507174501 13 251 6.4 12.9 0.00 0.00 0.00 45 1012.0
20260507174001 13 333 6.4 9.7 0.00 0.00 0.00 47 1012.2
20260507173501 13 279 8.0 9.7 0.00 0.00 0.00 47 1012.3
20260507173006 14 260 3.2 8.0 0.00 0.00 0.00 46 1012.3
20260507172500 14 356 4.8 6.4 0.00 0.00 0.00 51 1012.2
20260507172001 13 224 6.4 9.7 0.00 0.00 0.00 50 1012.5
20260507171500 14 245 6.4 9.7 0.00 0.00 0.00 48 1012.3
20260507171006 13 278 4.8 12.9 0.00 0.00 0.00 48 1012.3
20260507170500 13 230 6.4 8.0 0.00 0.00 0.00 49 1012.5
20260507170001 13 255 1.6 11.3 0.00 0.00 0.00 49 1012.7
20260507165500 12 4 1.6 8.0 0.00 0.00 0.00 48 1012.7
20260507165001 12 252 8.0 8.0 0.00 0.00 0.00 46 1012.5
20260507164501 13 246 12.9 17.7 0.00 0.00 0.00 46 1012.7
20260507164005 13 257 12.9 12.9 0.00 0.00 0.00 45 1012.6
20260507163501 13 86 3.2 9.7 0.00 0.00 0.00 46 1012.5
20260507163000 15 36 3.2 6.4 0.00 0.00 0.00 47 1012.7
20260507162501 13 231 3.2 14.5 0.00 0.00 0.00 50 1012.7
20260507162000 12 284 3.2 9.7 0.00 0.00 0.00 49 1012.7
20260507161501 12 251 9.7 17.7 0.00 0.00 0.00 45 1012.7
20260507161000 13 242 9.7 11.3 0.00 0.00 0.00 45 1012.9
20260507160506 13 242 8.0 16.1 0.00 0.00 0.00 48 1013.0
20260507160001 12 247 8.0 14.5 0.00 0.00 0.00 44 1013.1
20260507155516 13 219 6.4 12.9 0.00 0.00 0.00 46 1013.0
20260507155006 13 245 9.7 20.9 0.00 0.00 0.00 44 1013.2
20260507154501 13 234 6.4 22.5 0.00 0.00 0.00 45 1013.3
20260507154001 13 257 9.7 16.1 0.00 0.00 0.00 49 1013.0
20260507153500 12 265 3.2 11.3 0.00 0.00 0.00 48 1013.2
20260507153001 12 255 8.0 12.9 0.00 0.00 0.00 47 1013.3
20260507152505 12 234 9.7 19.3 0.00 0.00 0.00 47 1013.3
20260507152001 12 243 11.3 17.7 0.00 0.00 0.00 45 1013.4
20260507151500 13 80 4.8 14.5 0.00 0.00 0.00 54 1013.4
20260507151006 12 262 6.4 11.3 0.00 0.00 0.00 49 1013.6
20260507150501 12 254 11.3 16.1 0.00 0.00 0.00 48 1013.6
20260507150011 12 233 14.5 19.3 0.00 0.00 0.00 46 1013.6
20260507145500 13 193 3.2 14.5 0.00 0.00 0.00 50 1013.4
20260507145001 13 255 6.4 9.7 0.00 0.00 0.00 50 1013.6
20260507144501 12 87 4.8 8.0 0.00 0.00 0.00 52 1013.8
20260507144003 12 272 12.9 16.1 0.00 0.00 0.00 53 1013.9
20260507143500 12 203 9.7 17.7 0.00 0.00 0.00 54 1013.7
20260507143001 12 219 3.2 8.0 0.00 0.00 0.00 54 1013.9
20260507142507 12 286 9.7 19.3 0.00 0.00 0.00 53 1014.0
20260507142001 11 263 6.4 12.9 0.00 0.00 0.00 56 1014.0
20260507141501 12 257 8.0 9.7 0.00 0.00 0.00 57 1014.3
20260507141001 12 213 6.4 6.4 0.00 0.00 0.00 59 1014.2
20260507140500 12 208 11.3 12.9 0.00 0.00 0.00 57 1014.2
20260507140001 11 250 11.3 14.5 0.00 0.00 0.00 56 1014.3
20260507135501 12 238 3.2 6.4 0.00 0.00 0.00 57 1014.2
20260507135001 11 182 9.7 17.7 0.00 0.00 0.00 56 1014.1
20260507134500 10 276 6.4 16.1 0.00 0.00 0.00 61 1014.5
20260507134001 10 228 6.4 14.5 0.00 0.00 0.00 59 1014.4
20260507133501 10 276 11.3 17.7 0.00 0.00 0.00 59 1014.3
20260507133001 11 229 8.0 16.1 0.00 0.00 0.00 59 1014.2
20260507132506 11 227 9.7 16.1 0.00 0.00 0.00 58 1014.4
20260507132000 10 242 1.6 6.4 0.00 0.00 0.00 59 1014.2
20260507131501 10 224 9.7 9.7 0.00 0.00 0.00 59 1014.4
20260507131011 10 260 4.8 9.7 0.00 0.00 0.00 62 1014.6
20260507130506 10 198 3.2 9.7 0.00 0.00 0.00 65 1014.4
20260507130006 9 221 6.4 9.7 0.00 0.00 0.00 66 1014.4
20260507125501 9 230 6.4 8.0 0.00 0.00 0.00 66 1014.5
20260507125011 8 186 3.2 9.7 0.00 0.00 0.00 70 1014.6
20260507124501 8 202 4.8 11.3 0.00 0.00 0.00 71 1014.4
20260507124000 8 230 3.2 6.4 0.00 0.00 0.00 73 1014.5
20260507123506 8 221 4.8 6.4 0.00 0.00 0.00 76 1014.4
20260507123001 7 243 4.8 6.4 0.00 0.00 0.00 78 1014.4
20260507122501 6 269 0.0 3.2 0.00 0.00 0.00 83 1014.4
20260507122000 6 193 0.0 3.2 0.00 0.00 0.00 90 1014.6
20260507121501 5 188 3.2 3.2 0.00 0.00 0.00 94 1014.6
20260507121001 5 172 0.0 1.6 0.00 0.00 0.00 95 1014.5
20260507120500 5 106 0.0 3.2 0.00 0.00 0.00 96 1014.3
20260507120001 5 78 0.0 1.6 0.00 0.00 0.00 96 1014.4
20260507115501 4 119 0.0 0.0 0.00 0.00 0.00 96 1014.4
20260507115000 3 212 0.0 1.6 0.00 0.00 0.00 96 1014.5
20260507114501 3 209 0.0 3.2 0.00 0.00 0.00 97 1014.7
20260507114001 2 147 1.6 3.2 0.00 0.00 0.00 96 1014.5
20260507113501 2 134 0.0 3.2 0.00 0.00 0.00 96 1014.4
20260507113000 2 89 0.0 1.6 0.00 0.00 0.00 96 1014.4
20260507112500 2 91 0.0 3.2 0.00 0.00 0.00 96 1014.2
20260507112006 2 72 0.0 1.6 0.00 0.00 0.00 96 1014.5
20260507111506 2 39 0.0 1.6 0.00 0.00 0.00 96 1014.3
20260507111006 1 52 0.0 3.2 0.00 0.00 0.00 96 1014.2
20260507110500 1 66 0.0 0.0 0.00 0.00 0.00 96 1014.3
20260507110001 1 107 0.0 1.6 0.00 0.00 0.00 96 1014.2
20260507105500 1 71 0.0 3.2 0.00 0.00 0.00 96 1014.3
20260507105001 1 54 0.0 3.2 0.00 0.00 0.00 96 1014.0
20260507104501 1 142 0.0 0.0 0.00 0.00 0.00 96 1014.0
20260507104000 1 89 0.0 0.0 0.00 0.00 0.00 96 1013.9
20260507103506 1 89 0.0 1.6 0.00 0.00 0.00 96 1014.0
20260507103000 1 107 0.0 0.0 0.00 0.00 0.00 96 1013.9
20260507102501 1 130 0.0 0.0 0.00 0.00 0.00 96 1013.8
20260507102000 1 310 0.0 1.6 0.00 0.00 0.00 96 1013.9
20260507101501 1 135 0.0 1.6 0.00 0.00 0.00 96 1013.8
20260507101006 1 95 0.0 3.2 0.00 0.00 0.00 96 1014.1
20260507100500 1 69 0.0 1.6 0.00 0.00 0.00 95 1014.0
20260507100006 1 111 0.0 1.6 0.00 0.00 0.00 95 1013.9
20260507095500 1 98 0.0 1.6 0.00 0.00 0.00 95 1014.1
20260507095001 1 109 0.0 3.2 0.00 0.00 0.00 95 1014.0
20260507094500 1 133 0.0 1.6 0.00 0.00 0.00 95 1013.9
20260507094006 1 76 0.0 1.6 0.00 0.00 0.00 95 1013.8
20260507093501 2 89 0.0 0.0 0.00 0.00 0.00 95 1013.9
20260507093001 2 81 0.0 1.6 0.00 0.00 0.00 95 1014.2
20260507092501 2 114 0.0 0.0 0.00 0.00 0.00 95 1014.1
20260507092000 2 110 0.0 1.6 0.00 0.00 0.00 95 1014.1
20260507091501 1 76 0.0 0.0 0.00 0.00 0.00 95 1014.1
20260507091000 2 122 0.0 1.6 0.00 0.00 0.00 95 1014.0
20260507090501 2 60 0.0 0.0 0.00 0.00 0.00 95 1014.0
20260507090000 2 148 0.0 3.2 0.00 0.00 0.00 95 1013.9
20260507085501 2 70 0.0 1.6 0.00 0.00 0.00 95 1014.1
20260507085006 2 110 0.0 1.6 0.00 0.00 0.00 95 1013.9
20260507084500 2 110 0.0 1.6 0.00 0.00 0.00 95 1014.1
20260507084001 2 67 1.6 1.6 0.00 0.00 0.00 94 1014.0
20260507083501 2 56 0.0 1.6 0.00 0.00 0.00 94 1014.1
20260507083000 2 65 0.0 0.0 0.00 0.00 0.00 94 1013.9
20260507082501 2 65 1.6 3.2 0.00 0.00 0.00 94 1014.3
20260507082006 2 57 0.0 3.2 0.00 0.00 0.00 94 1014.0
20260507081505 2 17 0.0 3.2 0.00 0.00 0.00 94 1013.8
20260507081001 2 85 0.0 3.2 0.00 0.00 0.00 94 1014.2
20260507080500 2 39 1.6 3.2 0.00 0.00 0.00 94 1014.0
20260507080001 2 79 0.0 3.2 0.00 0.00 0.00 94 1014.2
20260507075500 3 103 0.0 1.6 0.00 0.00 0.00 94 1014.0
20260507075001 2 352 0.0 3.2 0.00 0.00 0.00 93 1014.1
20260507074501 2 135 0.0 1.6 0.00 0.00 0.00 93 1014.1
20260507074000 3 83 0.0 1.6 0.00 0.00 0.00 93 1014.0
20260507073501 3 73 0.0 3.2 0.00 0.00 0.00 93 1014.4
20260507073000 3 76 1.6 3.2 0.00 0.00 0.00 92 1014.1
20260507072501 3 55 0.0 1.6 0.00 0.00 0.00 92 1014.1
20260507072000 3 6 0.0 3.2 0.00 0.00 0.00 92 1014.2
20260507071501 3 2 0.0 3.2 0.00 0.00 0.00 92 1014.1
20260507071000 3 191 0.0 1.6 0.00 0.00 0.00 92 1014.3
20260507070501 3 44 0.0 3.2 0.00 0.00 0.00 91 1014.3
20260507070000 3 100 1.6 1.6 0.00 0.00 0.00 91 1014.2
20260507065501 3 113 0.0 3.2 0.00 0.00 0.00 91 1014.2
20260507065000 4 76 0.0 3.2 0.00 0.00 0.00 90 1014.1
20260507064501 4 11 1.6 3.2 0.00 0.00 0.00 90 1014.3
20260507064001 4 58 0.0 3.2 0.00 0.00 0.00 90 1014.1
20260507063506 5 85 0.0 1.6 0.00 0.00 0.00 89 1014.2
20260507063006 5 89 0.0 1.6 0.00 0.00 0.00 89 1014.3
20260507062501 5 69 0.0 3.2 0.00 0.00 0.00 88 1014.4
20260507062001 5 89 0.0 1.6 0.00 0.00 0.00 87 1014.2
20260507061505 5 65 1.6 3.2 0.00 0.00 0.00 86 1014.4
20260507061000 5 19 0.0 3.2 0.00 0.00 0.00 85 1014.2
20260507060501 5 65 0.0 1.6 0.00 0.00 0.00 85 1014.4
20260507060000 5 24 3.2 3.2 0.00 0.00 0.00 83 1014.7
20260507055506 6 75 0.0 1.6 0.00 0.00 0.00 82 1014.5
20260507055000 6 33 0.0 1.6 0.00 0.00 0.00 83 1014.3
20260507054506 6 53 1.6 1.6 0.00 0.00 0.00 84 1014.5
20260507054001 6 63 0.0 3.2 0.00 0.00 0.00 85 1014.7
20260507053501 6 124 0.0 1.6 0.00 0.00 0.00 84 1014.8
20260507053001 6 169 1.6 3.2 0.00 0.00 0.00 84 1015.0
20260507052500 6 136 1.6 3.2 0.00 0.00 0.00 81 1015.0
20260507052001 6 107 0.0 1.6 0.00 0.00 0.00 81 1015.0
20260507051500 6 99 0.0 3.2 0.00 0.00 0.00 82 1015.1
20260507051001 7 63 0.0 1.6 0.00 0.00 0.00 82 1015.1
20260507050500 7 208 0.0 1.6 0.00 0.00 0.00 80 1015.2
20260507050001 7 63 0.0 3.2 0.00 0.00 0.00 73 1015.2
20260507045505 7 26 0.0 3.2 0.00 0.00 0.00 73 1015.1
20260507045006 7 64 1.6 1.6 0.00 0.00 0.00 72 1015.0
20260507044500 7 322 0.0 1.6 0.00 0.00 0.00 73 1015.0
20260507044001 7 183 0.0 1.6 0.00 0.00 0.00 73 1014.9
20260507043501 7 63 0.0 1.6 0.00 0.00 0.00 71 1014.9
20260507043000 7 339 1.6 3.2 0.00 0.00 0.00 71 1015.0
20260507042501 7 124 0.0 3.2 0.00 0.00 0.00 71 1015.0
20260507042011 7 24 1.6 3.2 0.00 0.00 0.00 71 1014.9
20260507041501 7 21 3.2 4.8 0.00 0.00 0.00 71 1015.0
20260507041001 7 33 1.6 3.2 0.00 0.00 0.00 71 1014.8
20260507040500 7 50 0.0 3.2 0.00 0.00 0.00 71 1014.8
20260507040000 7 20 0.0 3.2 0.00 0.00 1.42 75 1015.0
20260507035501 7 89 0.0 0.0 0.00 0.00 1.42 82 1015.1
20260507035000 7 125 0.0 3.2 0.00 0.00 1.42 79 1014.8
20260507034501 7 55 0.0 3.2 0.00 0.00 1.42 70 1014.8
20260507034001 7 43 3.2 3.2 0.00 0.00 1.42 70 1014.6
20260507033500 7 335 1.6 3.2 0.00 0.00 1.42 72 1014.5
20260507033001 7 89 1.6 1.6 0.00 0.00 1.42 73 1014.6
20260507032506 7 34 0.0 1.6 0.00 0.00 1.42 71 1014.4
20260507032001 7 49 0.0 3.2 0.00 0.00 1.42 73 1014.7
20260507031500 7 52 3.2 4.8 0.00 0.00 1.42 74 1014.6
20260507031001 7 44 0.0 1.6 0.00 0.00 1.42 73 1014.6
20260507030500 7 107 0.0 3.2 0.00 0.00 1.42 74 1014.6
20260507030001 7 185 0.0 0.0 0.00 0.00 1.42 72 1014.5
20260507025500 7 49 0.0 0.0 0.00 0.00 1.42 72 1014.5
20260507025001 7 354 0.0 1.6 0.00 0.00 1.42 75 1014.3
20260507024501 8 117 0.0 0.0 0.00 0.00 1.42 76 1014.4
20260507024000 8 55 0.0 3.2 0.00 0.00 1.42 65 1014.4